Content
SEND FEEDBACK

Daily
Averages
Monthly
Summary
United States of America

MADERA, CALIFORNIA


Home > North America > United States > California
Elevation: 253 feet     Latitude: 36 59N     Longitude: 120 06W

WEATHER
 
SELECT A DAY
Number of Records: 151,055;   Date Range: 9/2/98 - 9/3/14
 
SHARE

PRINT THIS DATA

[ ← Previous Day ]
WEATHER ALMANAC - JANUARY 3, 2013
[ Next Day → ]
[ °C ]   °F
Weather ElementAverageHighLow
Temperature38.8 °F54 °F (2:53 pm)30 °F (4:53 am)
Dewpoint33.7 °F39.9 °F (12:53 pm)27 °F (4:53 am)
Humidity83.2 %100 % (11:45 pm)57 % (1:53 pm)
Barometer30.25 in30.30 in (10:53 pm)30.20 in (2:53 am)
Wind Speed2 mph6.9 mph (6:53 am)
Weather ElementAverage
Visibility4.5 mi
Wind DirectionESE (101.4 °)

Weather ElementTotal
Precipitation---
Heating Degree Days23 (Base 65)
Averaged from 29 records on January 3, 2013
WEATHER CONDITIONS BREAKOUT
WIND DIRECTION BREAKOUT
WEATHER BY HOUR - JANUARY 3, 2013
[ °C ]   °F
Local TimeTemperatureDewpointHumidityBarometerVisibilityWind DirectionWind SpeedGust SpeedPrecipitationEventsConditions
1:53 AM33.1 °F30.9 °F92 %30.21 in4.0 miCalmClear
2:53 AM30.9 °F28.9 °F92 %30.20 in7.0 miEast (80°)4.6 mphClear
3:53 AM32.0 °F30.0 °F92 %30.21 in6.0 miCalmClear
4:53 AM30.0 °F27.0 °F88 %30.21 in4.0 miWest (260°)3.5 mphClear
5:53 AM30.9 °F28.0 °F89 %30.23 in6.0 miCalmClear
6:53 AM30.9 °F28.9 °F92 %30.22 in8.0 miEast (80°)6.9 mphClear
7:53 AM32.0 °F30.0 °F92 %30.25 in5.0 miSouth (170°)3.5 mphClear
8:53 AM36.0 °F34.0 °F93 %30.27 in4.0 miCalmClear
9:53 AM42.1 °F37.0 °F82 %30.29 in4.0 miCalmHaze
10:53 AM46.9 °F39.0 °F74 %30.27 in4.0 miESE (120°)4.6 mphHaze
11:53 AM48.9 °F39.0 °F69 %30.24 in5.0 miCalmHaze
12:53 PM52.0 °F39.9 °F63 %30.23 in6.0 miWest (280°)3.5 mphHaze
1:53 PM53.1 °F37.9 °F57 %30.22 in7.0 miWest (260°)4.6 mphClear
2:53 PM54.0 °F39.0 °F57 %30.22 in7.0 miWest (280°)5.8 mphClear
3:53 PM53.1 °F39.0 °F59 %30.23 in7.0 miNNW (330°)6.9 mphClear
4:53 PM48.0 °F37.9 °F68 %30.24 in7.0 miNW (320°)4.6 mphClear
5:53 PM43.0 °F35.1 °F74 %30.24 in8.0 miCalmClear
6:53 PM39.9 °F35.1 °F83 %30.24 in6.0 miCalmHaze
7:53 PM39.0 °F35.1 °F86 %30.26 in6.0 miCalmClear
8:53 PM36.0 °F33.1 °F89 %30.27 in4.0 miNorth (360°)3.5 mphClear
9:53 PM36.0 °F33.1 °F89 %30.29 in3.0 miCalmClear
10:08 PM35.6 °F32.0 °F87 %30.29 in1.8 miCalmClear
10:29 PM35.6 °F32.0 °F87 %30.29 in2.5 miCalmClear
10:39 PM35.6 °F32.0 °F87 %30.29 in0.8 miCalmClear
10:53 PM35.1 °F32.0 °F89 %30.30 in0.2 miCalmFogFog
11:04 PM35.6 °F33.8 °F93 %30.29 in2.0 miCalmClear
11:17 PM35.6 °F33.8 °F93 %30.29 in1.8 miCalmClear
11:45 PM32.0 °F32.0 °F100 %30.29 in2.5 miSSW (200°)3.5 mphClear
11:53 PM32.0 °F30.9 °F96 %30.29 in2.0 miSSW (200°)3.5 mphClear
Hourly data recorded from KMAE, located miles away from Madera, California







STORIES FROM OUR PARTNERS